Regional Weather Roundup
Issued by NWS

Home | Current Version | Previous Version | Graphics & Text | Print | Product List | Glossary Off
Versions: 1 2 3 4 5 6 7 8 9 10 11 12 13 14 15 16 17 18 19 20 21 22 23 24 25 26 27 28 29 30 31 32 33 34 35 36 37 38 39 40 41 42 43 44 45 46 47 48 49 50

000
ASUS43 KLSX 191507
RWRMO

WEATHER SUMMARY FOR MISSOURI
NATIONAL WEATHER SERVICE SPRINGFIELD MO
1000 AM CDT THU APR 19 2018

NOTE: "FAIR" INDICATES FEW OR NO CLOUDS BELOW 12,000 FEET WITH NO
       SIGNIFICANT WEATHER AND/OR OBSTRUCTIONS TO VISIBILITY.
       CURRENT SKY AND/OR WEATHER CONDITIONS ARE NOT AVAILABLE FOR
       CHILLICOTHE AND FARMINGTON.

MOZ001>031-035>038-043-044-053-054-191600-
...NORTHERN AND WESTERN MISSOURI...

CITY           SKY/WX    TMP DP  RH WIND       PRES   REMARKS
KANSAS CTY INT SUNNY     43  30  60 N12       30.43R
KANSAS C DTWN  SUNNY     44  29  55 N10       30.44R
LEE`S SUMMIT   SUNNY     42  30  62 N13       30.43R
ST JOSEPH      SUNNY     44  32  62 N12       30.46R
CHILLICOTHE      N/A     43  31  62 N8        30.44R
KIRKSVILLE     SUNNY     41  32  70 N3        30.41R

$$
MOZ066>068-077>081-088>096-101>105-191600-
...SOUTHWEST MISSOURI...

CITY           SKY/WX    TMP DP  RH WIND       PRES   REMARKS
SPRINGFIELD    CLOUDY    43  28  55 N16       30.37R
JOPLIN         SUNNY     44  31  60 N16G23    30.41R
BRANSON        PTSUNNY   41  27  56 N13       30.36R

$$
MOZ032>034-039>042-045>050-055>058-069>072-191600-
...CENTRAL MISSOURI...

CITY           SKY/WX    TMP DP  RH WIND       PRES   REMARKS
COLUMBIA       MOSUNNY   41  29  62 N8        30.40R
JEFFERSON CITY CLOUDY    41  28  60 N7        30.41R
ROLLA          CLOUDY    38  28  67 N9        30.38R
SEDALIA        MOSUNNY   43  31  62 VRB7      30.43R
WHITEMAN AFB   MOSUNNY   41  29  62 N9        30.37R
WARRENSBURG    SUNNY     41  30  65 N8        30.42S
OSAGE BEACH    PTSUNNY   42  28  57 N8        30.40R

$$
MOZ051-052-059>065-191600-
...EAST CENTRAL MISSOURI...

CITY           SKY/WX    TMP DP  RH WIND       PRES   REMARKS
ST LOUIS INTL  CLOUDY    40  31  70 N13       30.36R
SPIRIT OF STL  CLOUDY    41  30  65 N12       30.37R
ST CHARLES     CLOUDY    41  31  67 N12       30.37R

$$
MOZ072>076-082>087-097>100-106>115-191600-
...SOUTH CENTRAL AND SOUTHEAST MISSOURI...

CITY           SKY/WX    TMP DP  RH WIND       PRES   REMARKS
CAPE GIRARDEAU CLOUDY    43  25  49 N18       30.33R
FARMINGTON     CLOUDY    38  27  64 NW10G20   30.35R
POPLAR BLUFF   CLOUDY    46  29  51 N15G23    30.33R
WEST PLAINS    MOSUNNY   44  26  49 N10G24    30.34R

$$




USA.gov is the U.S. government's official web portal to all federal, state and local government web resources and services.